Header for Extended Forecast Station List Page

Search by: ID | Name | Date | Parm | Value | Avg | % Avg
Sort by: ID | Name | Date | Parm | Value | Avg | % Avg

Enter search or view all records.

Click on id for station plot
#IDNameDateParmValueAvg% Avg
0LYDM8KOOTENAI-LIBBY DAM02-02-2016INFLOW (KAF)2067238887
1LEOI1KOOTENAI-AT LEONIA02-02-2016DISCHARGE (KAF)30362777109
2BFEI1KOOTENAI-AT BONNERS FERRY02-02-2016STAGE (FT)MMM
3FCFM8NF FLATHEAD-NEAR COLUMBIA FALLS02-02-2016DISCHARGE (KAF)71479989
4WGCM8MF FLATHEAD-NEAR WEST GLACIER02-02-2016DISCHARGE (KAF)69577190
5HHWM8SF FLATHEAD-HUNGRY HORSE DAM02-02-2016INFLOW (KAF)876107881
6CFMM8FLATHEAD-AT COLUMBIA FALLS02-02-2016DISCHARGE (KAF)2130244687
7DLGM8CLARK FORK-AT DEER LODGE02-02-2016DISCHARGE (KAF)477265
8DRMM8CLARK FORK-NR DRUMMOND02-02-2016DISCHARGE (KAF)128MM
9RCCM8ROCK CREEK-NEAR CLINTON02-02-2016DISCHARGE (KAF)8812869
10BONM8BLACKFOOT-NEAR BONNER02-02-2016DISCHARGE (KAF)36045978
11ABOM8CLARK FORK-ABOVE MISSOULA02-02-2016DISCHARGE (KAF)59786169
12BITM8BITTERROOT-NEAR MISSOULA02-02-2016DISCHARGE (KAF)47764174
13BELM8CLARK FORK-BELOW MISSOULA02-02-2016DISCHARGE (KAF)1073151971
14STRM8ST. REGIS-NEAR ST. REGIS02-02-2016DISCHARGE (KAF)18420092
15SRGM8CLARK FORK-AT ST REGIS02-02-2016DISCHARGE (KAF)1522211472
16KERM8FLATHEAD-KERR DAM02-02-2016INFLOW (KAF)2397312177
17NOXM8CLARK FORK-NOXON RAPIDS DAM02-02-2016INFLOW (KAF)3389600056
18CABI1CLARK FORK-CABINET GORGE DAM02-02-2016INFLOW (KAF)3772627460
19PRTI1PRIEST-NEAR PRIEST RIVER02-02-2016DISCHARGE (KAF)559561100
20ALFW1PEND OREILLE-ALBENI FALLS DAM02-02-2016INFLOW (KAF)5017766965
21HOPI1PEND OREILLE-PEND OREILLE LAKE NR HOPE02-02-2016LAKE ELEVATION (FT)MMM
22COEI1COEUR D ALENE-COEUR D ALENE LAKE02-02-2016INFLOW (KAF)2422263092
23SPOW1SPOKANE-AT SPOKANE02-02-2016DISCHARGE (KAF)2352MM
24LLKW1SPOKANE-AT LONGLAKE02-02-2016INFLOW (KAF)2690312486
25SATI1ST MARIES-NEAR SANTA02-02-2016DISCHARGE (KAF)164146112
26SJMI1ST JOE-AT ST MARIES02-02-2016STAGE (FT)MMM
27CIBW1COLUMBIA-AT INTL BOUNDARY02-02-2016DISCHARGE (KAF)16253MM
28LAUW1KETTLE-AT LAURIER02-02-2016DISCHARGE (KAF)11201072104
29GCDW1COLUMBIA-GRAND COULEE DAM02-02-2016INFLOW (KAF)201302443982
30CHJW1COLUMBIA-CHIEF JOSEPH DAM02-02-2016INFLOW (KAF)207802593280
31TONW1OKANOGAN-NEAR TONASKET02-02-2016DISCHARGE (KAF)79680699
32PATW1METHOW-NEAR PATEROS02-02-2016DISCHARGE (KAF)448428105
33WELW1COLUMBIA-WELLS DAM02-02-2016INFLOW (KAF)219972714681
34CHDW1CHELAN-LAKE CHELAN DAM02-02-2016INFLOW (KAF)503495102
35RRHW1COLUMBIA-ROCKY REACH DAM02-02-2016INFLOW (KAF)225512752182
36ARDW1ENTIAT-NEAR ARDENVOIR02-02-2016DISCHARGE (KAF)10390114
37PESW1WENATCHEE-AT PESHASTIN02-02-2016DISCHARGE (KAF)932805116
38WANW1COLUMBIA-WANAPUM DAM02-02-2016INFLOW (KAF)234632679088
39PRWW1COLUMBIA-PRIEST RAPIDS DAM02-02-2016INFLOW (KAF)234572718686
40KEDW1YAKIMA-KEECHELUS LAKE02-02-2016INFLOW (KAF)10691117
41KADW1KACHESS-KACHESS DAM02-02-2016INFLOW (KAF)10087116
42EASW1YAKIMA-AT EASTON02-02-2016DISCHARGE (KAF)106100106
43CLUW1CLE ELUM-CLE ELUM LAKE02-02-2016INFLOW (KAF)267249107
44TNAW1TEANAWAY-BELOW FORKS02-02-2016DISCHARGE (KAF)143124116
45UMTW1YAKIMA-AT UMTANUM02-02-2016DISCHARGE (KAF)625559112
46BUDW1BUMPING-BUMPING LAKE DAM02-02-2016INFLOW (KAF)8272114
47CLFW1NACHES-NEAR CLIFFDEL02-02-2016DISCHARGE (KAF)329262126
48RILW1TIETON-RIMROCK LAKE NEAR RIMROCK02-02-2016INFLOW (KAF)138127109
49NACW1NACHES-NEAR NACHES02-02-2016DISCHARGE (KAF)552325170
50PARW1YAKIMA-NEAR PARKER02-02-2016DISCHARGE (KAF)893640139
51KIOW1YAKIMA-AT KIONA02-02-2016DISCHARGE (KAF)11301000113
52IPDI1HENRYS FORK-ISLAND PARK DAM02-02-2016INFLOW (KAF)12915882
53CHEI1FALL RIVER-NEAR CHESTER02-02-2016DISCHARGE (KAF)224221101
54ANTI1HENRYS FORK-AT ST. ANTHONY02-02-2016DISCHARGE (KAF)34852866
55TEAI1TETON-NEAR ST. ANTHONY02-02-2016DISCHARGE (KAF)16818890
56REXI1HENRYS FORK-AT REXBURG02-02-2016DISCHARGE (KAF)38961064
57JLKW4SNAKE-JACKSON LAKE AT DAM02-02-2016INFLOW (KAF)32133496
58JKSW4SNAKE-NEAR JACKSON02-02-2016DISCHARGE (KAF)57164189
59ALPW4SNAKE-NEAR ALPINE02-02-2016DISCHARGE (KAF)75786887
60PLDI1SF SNAKE-PALISADES DAM02-02-2016INFLOW (KAF)1205140786
61HEII1SNAKE-NEAR HEISE02-02-2016DISCHARGE (KAF)14541435101
62RIDI1WILLOW CREEK-RIRIE DAM02-02-2016INFLOW (KAF)373995
63SIFI1SNAKE-AB EAGLE ROCK NR IDAHO FALLS02-02-2016DISCHARGE (KAF)1338154287
64SHYI1SNAKE-NEAR SHELLEY02-02-2016DISCHARGE (KAF)1252156980
65SNAI1SNAKE-AT BLACKFOOT02-02-2016DISCHARGE (KAF)1034137475
66BFTI1SNAKE-NEAR BLACKFOOT02-02-2016DISCHARGE (KAF)1012138273
67PIHI1PORTNEUF-AT POCATELLO02-02-2016DISCHARGE (KAF)6810167
68AFRI1SNAKE-AMERICAN FALLS RESERVOIR02-02-2016INFLOW (KAF)1588207477
69MILI1SNAKE-AT MILNER02-02-2016DISCHARGE (KAF)15872522
70HOTI1BRUNEAU-NEAR HOT SPRINGS02-02-2016DISCHARGE (KAF)141136103
71SWAI1SNAKE-BELOW SWAN FALLS02-02-2016DISCHARGE (KAF)1857270669
72HWRI1BIG LOST-AT HOWELL RANCH NEAR CHILLY02-02-2016DISCHARGE (KAF)465977
73MACI1BIG LOST-MACKAY RESERVOIR NEAR MACKAY02-02-2016INFLOW (KAF)445581
74HALI1BIG WOOD-AT HAILEY02-02-2016DISCHARGE (KAF)10411590
75MAGI1BIG WOOD-MAGIC DAM02-02-2016INFLOW (KAF)179170105
76LWRI1LITTLE WOOD-LITTLE WOOD DAM02-02-2016INFLOW (KAF)415574
77OWYO3OWYHEE-OWYHEE DAM02-02-2016INFLOW (KAF)409355115
78ARAI1SF BOISE-ANDERSON RANCH DAM02-02-2016INFLOW (KAF)33234995
79LUCI1BOISE-LUCKY PEAK DAM02-02-2016INFLOW (KAF)906MM
80BIGI1BOISE-AT GLENWOOD BRIDGE02-02-2016DISCHARGE (KAF)416283147
81PARI1BOISE-NEAR PARMA02-02-2016DISCHARGE (KAF)468382123
82WRMO3MALHEUR-WARM SPRINGS DAM02-02-2016INFLOW (KAF)12676166
83BERO3MALHEUR-AGENCY VALLEY DAM02-02-2016INFLOW (KAF)5451106
84BULO3BULLY CREEK-BULLY CREEK DAM02-02-2016INFLOW (KAF)299326
85VALO3MALHEUR-NEAR VALE02-02-2016DISCHARGE (KAF)376457
86CSDI1NF PAYETTE-CASCADE DAM02-02-2016INFLOW (KAF)32632899
87DEDI1DEADWOOD-NEAR LOWMAN02-02-2016INFLOW (KAF)7974107
88EMMI1PAYETTE-NEAR EMMETT02-02-2016DISCHARGE (KAF)82191290
89WSRI1WEISER-NEAR WEISER02-02-2016DISCHARGE (KAF)488407120
90WEII1SNAKE-AT WEISER02-02-2016DISCHARGE (KAF)3903511876
91BRNI1SNAKE-BROWNLEE DAM02-02-2016INFLOW (KAF)4328549979
92WHBI1SALMON-AT WHITEBIRD02-02-2016DISCHARGE (KAF)2715300390
93TRYO3GRANDE RONDE-TROY02-02-2016DISCHARGE (KAF)1063108698
94ANAW1SNAKE-NEAR ANATONE02-02-2016DISCHARGE (KAF)83421053579
95ORFI1CLEARWATER-AT OROFINO02-02-2016DISCHARGE (KAF)3026321494
96DWRI1NF CLEARWATER-DWORSHAK DAM02-02-2016INFLOW (KAF)22852162106
97SPDI1CLEARWATER-AT SPALDING02-02-2016DISCHARGE (KAF)4754525690
98LGDW1SNAKE-LOWER GRANITE DAM02-02-2016INFLOW (KAF)130961580583
99LGSW1SNAKE-LITTLE GOOSE DAM02-02-2016INFLOW (KAF)131231585583
100LMNW1SNAKE-LOWER MONUMENTAL DAM02-02-2016INFLOW (KAF)133941612583
101IHDW1SNAKE-ICE HARBOR DAM02-02-2016INFLOW (KAF)134071596384
102TCHW1WALLA WALLA-NEAR TOUCHET02-02-2016DISCHARGE (KAF)225213106
103MCDW1COLUMBIA-MCNARY DAM02-02-2016INFLOW (KAF)380694528684
104GIBO3UMATILLA-NEAR GIBBON02-02-2016DISCHARGE (KAF)9384111
105PDTO3UMATILLA-AT PENDLETON02-02-2016DISCHARGE (KAF)206197104
106MYKO3MCKAY CREEK-NEAR PILOT ROCK02-02-2016DISCHARGE (KAF)4140105
107UMAO3UMATILLA-NEAR UMATILLA02-02-2016DISCHARGE (KAF)182169107
108MONO3NF JOHN DAY-AT MONUMENT02-02-2016DISCHARGE (KAF)592591100
109SERO3JOHN DAY-AT SERVICE CK02-02-2016DISCHARGE (KAF)880861102
110JDAO3COLUMBIA-JOHN DAY DAM02-02-2016INFLOW (KAF)403844779384
111MODO3DESCHUTES-AT MOODY NR BIGGS02-02-2016DISCHARGE (KAF)1437158091
112TDAO3COLUMBIA-THE DALLES DAM02-02-2016INFLOW (KAF)408184834584
113PITW1KLICKITAT-NEAR PITT02-02-2016DISCHARGE (KAF)535517104
114HODO3HOOD-NEAR TUCKER BRIDGE02-02-2016DISCHARGE (KAF)306286107
115UNDW1WHITE SALMON-NEAR UNDERWOOD02-02-2016DISCHARGE (KAF)399357112
116BONO3COLUMBIA-BONNEVILLE DAM02-02-2016INFLOW (KAF)42037MM